Weather History for Rogers, AR

Change the Weather History Date:

Friday, August 23, 2013

  Actual Average Record
Temperature  
Mean Temperature 80 °F -  
Max Temperature 89 °F 85 °F 98 °F (2003)
Min Temperature 70 °F 65 °F 60 °F (1997)
Cooling Degree Days 14    
Growing Degree Days 30 (Base 50)    
Moisture  
Dew Point 67 °F    
Average Humidity 69    
Maximum Humidity 97    
Minimum Humidity 40    
Precipitation  
Precipitation 0.00 in - - ()
Sea Level Pressure  
Sea Level Pressure 30.05 in    
Wind  
Wind Speed 4 mph (East)    
Max Wind Speed 8 mph    
Max Gust Speed -    
Visibility 10 miles    
Events      
Averages and records for this station are not official NWS values.
T = Trace of Precipitation, MM = Missing Value Source: NWS Daily Summary

Daily Weather History Graph

Daily Weather History Graph

Search for Another Location

Airport:

Trip Planner

Search our weather history database for the weather conditions in past years. The results will help you decide how hot, cold, wet, or windy it might be!

Date:

Astronomy

Aug. 23, 2013 Rise Set
Actual Time 6:40 AM CDT 7:56 PM CDT
Civil Twilight 6:14 AM CDT 8:23 PM CDT
Nautical Twilight 5:42 AM CDT 8:55 PM CDT
Astronomical Twilight 5:08 AM CDT 9:28 PM CDT
Moon 9:23 PM CDT (8/23) 9:30 AM CDT (8/23)
Length of Visible Light 14h 09m
Length of Day
13h 15m
Waning Gibbous, 91% of the Moon is Illuminated
Aug 23
Waning Gibbous
Aug 28
Last Quarter
Sep 5
New
Sep 12
First Quarter
Sep 19
Full

Hourly Weather History & Observations

Time (CDT) Temp. Heat Index Dew Point Humidity Pressure Visibility Wind Dir Wind Speed Gust Speed Precip Events Conditions
12:57 AM 73.0 °F - 69.1 °F 87% 30.06 in 10.0 mi ESE 5.8 mph - N/A   Clear
1:57 AM 72.0 °F - 69.1 °F 91% 30.05 in 10.0 mi East 4.6 mph - N/A   Clear
2:57 AM 72.0 °F - 69.1 °F 91% 30.04 in 10.0 mi ESE 4.6 mph - N/A   Clear
3:57 AM 71.1 °F - 68.0 °F 90% 30.04 in 9.0 mi Calm Calm - N/A   Clear
4:57 AM 71.1 °F - 68.0 °F 90% 30.05 in 7.0 mi Calm Calm - N/A   Clear
5:57 AM 70.0 °F - 69.1 °F 97% 30.07 in 6.0 mi East 4.6 mph - N/A   Clear
6:57 AM 70.0 °F - 66.9 °F 90% 30.08 in 9.0 mi East 6.9 mph - N/A   Clear
7:57 AM 73.0 °F - 69.1 °F 87% 30.09 in 9.0 mi ESE 3.5 mph - N/A   Clear
8:57 AM 75.9 °F - 69.1 °F 79% 30.09 in 10.0 mi ESE 5.8 mph - N/A   Clear
9:57 AM 80.1 °F 83.2 °F 70.0 °F 71% 30.09 in 10.0 mi Calm Calm - N/A   Clear
10:57 AM 84.9 °F 89.4 °F 70.0 °F 61% 30.09 in 10.0 mi Calm Calm - N/A   Clear
11:57 AM 87.1 °F 89.9 °F 66.9 °F 51% 30.09 in 10.0 mi East 6.9 mph - N/A   Clear
12:57 PM 87.1 °F 88.3 °F 64.0 °F 46% 30.07 in 10.0 mi East 3.5 mph - N/A   Clear
1:57 PM 88.0 °F 90.3 °F 66.0 °F 48% 30.06 in 10.0 mi Variable 3.5 mph - N/A   Partly Cloudy
2:57 PM 89.1 °F 90.0 °F 63.0 °F 42% 30.04 in 10.0 mi East 4.6 mph - N/A   Clear
3:57 PM 89.1 °F 89.3 °F 62.1 °F 40% 30.02 in 10.0 mi East 3.5 mph - N/A   Clear
4:57 PM 89.1 °F 90.0 °F 63.0 °F 42% 30.02 in 10.0 mi ENE 8.1 mph - N/A   Clear
5:57 PM 88.0 °F 89.3 °F 64.0 °F 45% 30.02 in 10.0 mi East 6.9 mph - N/A   Clear
6:57 PM 86.0 °F 88.2 °F 66.0 °F 51% 30.01 in 10.0 mi East 3.5 mph - N/A   Clear
7:57 PM 82.9 °F 87.0 °F 70.0 °F 65% 30.02 in 10.0 mi ENE 4.6 mph - N/A   Clear
8:57 PM 80.1 °F 82.7 °F 68.0 °F 67% 30.03 in 10.0 mi East 6.9 mph - N/A   Clear
9:57 PM 78.1 °F - 69.1 °F 74% 30.04 in 10.0 mi East 6.9 mph - N/A   Clear
10:57 PM 77.0 °F - 71.1 °F 82% 30.05 in 10.0 mi ESE 6.9 mph - N/A   Clear
11:57 PM 75.9 °F - 69.1 °F 79% 30.05 in 10.0 mi ESE 6.9 mph - N/A   Clear